Dewpoint
71 72 72 71 71 70 69 70 70 69 69 68 68 68 68 67 67 66 65 63 62 61 59 58 57 56 51 51 52 53 51 54 59 57 59 61 60 58 58 60 60 58 66
72 72 71 71 70 70 69 70 69 68 69 68 68 67 66 66 66 65 64 61 60 58 55 56 54 49 51 51 50 51 50 50 51 52 54 56 59 57 58 55 53 51 63
72 72 71 70 70 70 69 69 69 69 68 67 67 66 66 65 65 64 63 60 58 56 55 54 51 50 50 49 50 49 49 49 49 48 48 51 53 53 54 54 53 51 53
72 71 70 70 70 69 69 69 68 68 67 66 66 66 64 63 62 63 60 57 53 49 50 52 51 50 51 51 50 51 49 48 48 46 48 50 52 52 53 51 50 51 50
71 71 70 70 70 69 69 68 68 68 67 65 62 59 59 58 58 61 59 55 51 50 50 50 50 48 49 50 50 50 50 47 46 45 45 47 46 47 49 50 50 49 50
71 71 70 70 70 69 68 68 66 65 60 59 57 57 58 56 60 60 57 54 53 52 51 52 53 57 55 54 53 50 49 50 49 46 47 47 48 49 50 49 48 46 44
71 70 70 69 69 68 67 66 65 60 55 53 53 54 56 58 59 59 57 54 54 54 54 53 52 51 57 53 52 50 48 48 49 50 49 48 49 50 51 50 48 47 46
70 70 70 69 68 67 66 65 64 58 55 52 52 53 53 55 57 58 56 53 51 51 52 53 53 54 54 55 51 49 50 48 47 45 49 49 49 51 51 50 50 50 49
70 69 69 68 67 66 65 64 62 59 57 55 52 51 52 55 56 56 53 52 50 47 48 49 53 53 53 55 52 51 51 47 46 48 51 53 53 55 53 52 49 47 46
69 68 68 67 67 66 64 62 61 60 58 56 54 53 52 53 55 53 51 48 47 43 46 48 48 53 54 56 53 50 48 47 46 47 48 48 48 48 50 52 49 46 46
68 68 68 66 67 66 64 61 59 59 57 57 57 56 55 52 53 53 51 49 46 44 45 46 47 50 52 52 53 50 47 48 48 48 46 46 47 48 48 49 50 49 48
68 68 68 68 67 65 62 61 61 57 56 55 56 57 56 55 53 53 53 49 49 47 47 46 48 50 50 50 51 51 51 52 48 48 47 47 47 48 48 49 50 48 48
68 68 67 66 64 63 62 59 57 57 56 55 54 55 55 56 56 54 53 53 52 48 48 48 49 49 49 50 51 50 50 48 48 47 47 47 49 49 51 50 50 51 51
67 66 64 64 61 62 61 59 56 54 54 54 54 54 55 55 55 54 53 53 53 51 49 46 46 48 49 49 47 46 46 46 46 47 47 49 50 49 47 48 46 45 45
65 64 64 61 61 59 58 57 56 57 54 54 55 53 53 53 53 52 51 52 50 45 45 44 43 43 44 45 44 45 46 47 48 49 47 45 46 45 45 47 46 45 43
65 64 62 61 60 57 53 50 46 50 44 42 44 49 51 47 45 46 45 43 42 43 44 43 43 43 42 43 44 44 47 47 46 45 46 46 45 46 46 45 42 40 39
65 63 61 61 58 56 53 51 50 46 43 41 42 43 43 43 41 40 40 40 41 43 43 44 42 42 43 44 44 46 47 46 46 46 46 46 46 46 45 41 39 39 39
64 58 61 60 57 55 52 48 46 45 39 43 42 42 41 40 39 39 39 40 43 42 41 42 43 44 45 45 46 46 44 44 47 47 47 47 46 43 41 39 39 40 41
62 61 61 58 54 54 51 43 43 44 44 43 46 45 44 40 40 39 40 43 43 44 43 44 45 45 46 47 46 45 44 46 47 48 46 46 44 43 42 42 42 42 42
61 59 58 57 54 53 50 44 45 46 44 44 45 47 48 46 46 47 45 45 45 45 47 46 45 46 46 46 46 45 47 47 47 46 46 45 42 41 41 42 42 42 42
61 59 58 57 57 55 52 50 48 46 46 47 47 48 44 48 45 46 46 46 47 45 45 45 46 46 47 46 46 47 47 47 46 45 44 42 41 41 42 43 43 43 43
61 59 58 57 56 55 54 53 50 48 48 47 44 44 41 45 46 45 47 47 45 45 45 47 46 46 46 46 49 48 47 46 45 44 42 41 41 42 42 42 43 43 44
60 59 58 56 55 53 51 50 47 46 44 43 43 44 46 47 47 47 46 45 46 46 46 47 47 46 46 47 48 47 46 46 44 42 41 40 40 41 42 41 42 43 44
59 57 55 55 52 49 48 45 44 42 43 44 45 46 48 49 48 46 45 46 46 45 46 47 47 47 48 49 48 47 45 43 41 40 40 40 40 41 41 42 43 44 44
55 53 52 51 49 46 44 43 44 44 44 46 48 49 49 49 47 46 45 46 46 44 47 48 49 49 49 49 47 45 41 36 39 37 39 40 40 41 41 42 44 44 44
53 53 51 47 44 43 43 44 45 47 49 50 51 51 50 48 47 46 46 46 44 44 47 49 49 48 48 48 44 38 34 33 37 33 36 39 40 41 43 44 46 45 45
Lifted_Index
-5 -5 -5 -6 -6 -6 -6 -5 -4 -3 -2 -2 -2 -1 -1 -1 0 1 2 3 4 5 6 8 9 10 11 12 12 12 11 9 7 6 5 4 3 2 2 2 2 1 1
-5 -5 -5 -6 -6 -6 -6 -5 -4 -3 -3 -2 -2 -1 -1 -0 1 1 2 3 4 5 7 9 10 11 12 13 14 14 13 12 11 9 7 6 5 4 3 3 3 2 2
-6 -5 -6 -6 -6 -6 -5 -4 -4 -3 -3 -2 -1 -0 0 1 1 2 3 4 4 6 8 10 11 12 13 14 14 15 15 14 13 12 11 10 9 8 7 6 5 5 4
-6 -6 -6 -6 -6 -6 -5 -4 -4 -4 -3 -2 -1 -0 0 1 1 2 3 3 5 7 10 11 11 11 12 12 13 13 13 13 13 13 13 13 12 11 10 9 8 8 8
-6 -6 -6 -7 -6 -6 -5 -4 -4 -3 -3 -2 -1 -1 -0 1 2 2 3 4 6 8 10 10 10 10 10 11 11 11 10 11 11 12 13 13 13 13 12 11 10 10 10
-6 -6 -7 -7 -6 -5 -5 -4 -4 -3 -3 -2 -1 -1 0 1 3 4 5 6 8 9 10 9 9 9 9 9 9 9 9 10 11 12 13 13 13 12 12 11 11 11 11
-7 -7 -7 -7 -6 -5 -5 -4 -4 -3 -3 -2 -1 -0 2 4 5 6 7 8 9 9 9 9 9 8 8 8 8 8 9 10 11 12 12 12 12 11 11 11 11 11 10
-7 -8 -7 -6 -5 -5 -5 -5 -4 -4 -3 -2 -0 1 4 7 8 8 8 9 9 9 10 10 9 9 8 8 8 8 8 9 11 12 12 11 11 10 10 10 10 11 10
-7 -7 -7 -5 -5 -5 -5 -5 -4 -4 -3 -1 1 4 6 8 9 9 9 10 10 10 10 11 10 10 9 9 8 8 8 9 10 11 11 10 10 10 9 10 10 10 10
-7 -7 -6 -4 -4 -4 -4 -4 -4 -3 -2 0 3 5 7 8 9 9 10 10 10 10 11 12 12 11 10 9 8 8 8 9 9 9 10 10 10 9 9 9 9 9 9
-7 -6 -5 -3 -3 -3 -3 -3 -3 -2 -0 2 5 6 7 7 8 8 8 8 9 10 11 12 12 12 11 10 9 9 9 9 9 9 9 9 9 9 9 8 8 8 8
-7 -6 -4 -3 -3 -3 -3 -3 -2 -0 1 4 5 6 6 6 7 7 7 7 7 9 11 11 11 11 10 10 9 9 9 9 8 8 8 8 8 8 8 8 8 8 8
-5 -5 -5 -4 -4 -3 -3 -2 -0 1 2 3 5 6 6 6 6 6 5 6 7 8 10 11 10 10 9 9 8 8 8 8 8 8 8 8 8 8 8 8 8 8 8
-4 -4 -5 -5 -4 -3 -2 -1 1 2 3 4 5 6 6 6 6 5 5 6 7 9 9 10 9 8 8 8 8 8 8 9 9 9 9 9 9 9 9 9 9 9 8
-3 -4 -4 -5 -4 -3 -1 0 2 3 4 5 6 6 6 7 7 6 6 7 8 9 9 9 8 8 7 7 8 8 9 9 9 9 9 10 10 10 10 10 10 10 9
-4 -4 -4 -4 -3 -2 -1 0 2 4 6 7 7 8 8 8 8 8 8 8 9 9 9 8 8 7 7 8 8 9 9 9 9 10 10 10 10 10 10 10 11 11 11
-4 -4 -4 -3 -3 -2 -1 0 2 4 6 8 9 9 9 9 9 9 9 9 9 9 9 8 7 7 7 8 9 9 9 9 9 10 10 10 10 11 11 11 12 13 13
-4 -4 -4 -3 -2 -2 -1 -0 2 4 6 8 9 9 9 9 9 9 9 9 9 9 8 7 7 7 8 9 9 9 9 9 10 10 10 10 11 11 12 12 13 13 13
-4 -4 -3 -2 -2 -2 -1 0 3 5 7 8 9 9 9 9 9 9 9 9 8 8 7 7 7 8 9 9 9 9 9 9 10 10 10 10 11 12 12 12 12 12 12
-4 -4 -3 -2 -2 -1 -0 2 4 6 8 8 9 9 9 9 9 9 8 8 8 7 7 7 8 9 10 10 9 9 9 9 9 9 9 10 11 12 12 12 12 11 11
-4 -3 -2 -2 -2 -1 1 4 6 7 7 8 8 9 9 9 9 8 8 7 7 7 8 8 9 10 10 10 9 9 8 8 8 8 8 9 10 11 11 11 11 11 10
-3 -2 -2 -2 -1 0 3 5 6 6 7 8 8 9 9 8 8 8 7 7 7 8 9 10 10 10 10 9 9 8 7 8 8 8 8 8 9 10 10 10 10 10 10
-2 -2 -2 -2 -0 2 4 5 6 6 7 8 8 8 8 7 7 7 7 6 7 9 11 11 11 10 9 9 8 8 7 8 8 8 8 8 9 9 9 9 9 9 9
-2 -2 -1 -0 2 4 5 6 7 7 8 8 8 8 7 7 7 7 6 6 8 11 12 12 11 10 9 8 8 8 8 8 9 9 8 8 8 8 8 8 8 8 8
-1 -0 1 3 4 5 6 7 8 8 8 8 7 7 6 6 6 6 6 7 9 12 12 12 11 10 9 8 7 8 8 8 9 9 9 8 8 8 8 8 8 8 8
0 1 3 5 6 6 8 8 8 8 7 7 7 6 6 6 6 6 5 7 10 12 12 12 11 9 8 7 7 7 8 8 9 9 9 8 7 7 7 8 8 8 8